www.pogodaiklimat.ru

Погода и климат >> Архив погоды >> Албания >> Vlore


ПОГОДА в Vlore

  • Прогноз погоды в Vlore
  • Монитор погоды в Vlore
  • Климат города

АРХИВ ПОГОДЫ в Vlore

Время (UTC), дата Ветер
(напр.,м/с)
 
Видим.   Явления Облачность Т
(С)
Тd
(С)
f
(%)
Тe
(С)
Тes
(С)
Комфортность P
(гПа)
Po
(гПа)
Тmin
(С)
Tmax
(С)
R
(мм)
R24
(мм)
S
(см)
18 12.09 Ю 2 20 км ясно +24.6 +14.4 53 +27 +27 жарко 1013.0 1012.3 +28.2
21 12.09 штиль 0 10 км ясно +22.4 +14.8 62 +26 +26 жарко 1013.8 1013.1
06 13.09 штиль 0 15 км 8/8 1200 м
[Sc]
+21.0 +15.1 69 +24 +24 комфорт 1016.3 1015.6 +19.0
09 13.09 ЮЗ 4 20 км 5/5 1300 м
[Sc]
+26.4 +16.4 54 +30 +34 душно 1018.5 1017.8
12 13.09 ЮЗ 6 20 км 3/3 1380 м
[Cu med, cong]
+27.0 +15.0 48 +30 +33 душно 1019.0 1018.3
15 13.09 С 6 20 км 3/3 1380 м
[Cu med, cong]
+26.8 +12.8 42 +28 +29 жарко 1018.6 1017.9
18 13.09 СЗ 4 20 км ясно +24.6 +14.6 54 +27 +27 жарко 1018.5 1017.8 +27.4
21 13.09 штиль 0 15 км ясно +21.4 +17.2 77 +25 +25 комфорт 1019.3 1018.6
06 14.09 В 4 20 км ясно +19.2 +14.9 76 +21 +22 комфорт 1017.5 1016.8 +16.2
09 14.09 СВ 4 20 км ясно +23.8 +14.5 56 +26 +34 жарко 1017.3 1016.6
12 14.09 ЮЗ 6 20 км ясно +27.4 +14.1 44 +30 +34 жарко 1016.2 1015.6
15 14.09 СЗ 2 20 км ясно +27.4 +13.0 41 +29 +32 жарко 1014.6 1013.9
18 14.09 штиль 0 20 км ясно +24.0 +13.2 51 +26 +26 жарко 1013.9 1013.2 +28.4
21 14.09 штиль 0 10 км ясно +22.2 +15.5 66 +26 +26 душно 1014.2 1013.5
06 15.09 СВ 4 15 км ясно +18.4 +12.6 69 +19 +20 1013.1 1012.4 +16.2
09 15.09 СВ 4 20 км ясно +23.8 +14.0 54 +26 +34 жарко 1013.6 1012.9
12 15.09 ЮЗ 4 20 км 3/3 1380 м
[Cu med, cong]
+26.8 +7.3 29 +26 +32 жарко 1013.4 1012.7
15 15.09 ЮЗ 6 20 км ясно +26.2 +4.5 25 +30 +31 душно 1012.3 1011.6
18 15.09 штиль 0 20 км ясно +15.0 +7.3 60 +15 +15 1012.3 1011.5 +28.2
21 15.09 штиль 0 12 км ясно +21.2 +17.2 78 +25 +25 комфорт 1013.4 1012.6
06 16.09 штиль 0 15 км ясно +18.2 +14.5 79 +18 +21 1012.8 1012.1 +16.0
09 16.09 СВ 6 15 км ясно +24.0 +16.0 61 +27 +32 жарко 1013.9 1013.2
12 16.09 ЮЗ 6 20 км ясно +27.4 +16.0 50 +31 +35 душно 1014.0 1013.3
15 16.09 ЮЗ 6 20 км ясно +29.0 +16.9 48 +33 +34 очень
душно
1013.0 1012.3
18 16.09 ЮЗ 4 20 км ясно +25.6 +18.3 64 +30 +30 душно 1013.1 1012.4 +29.4
21 16.09 штиль 0 15 км ясно +22.2 +18.6 80 +27 +27 душно 1014.1 1013.4
06 17.09 штиль 0 20 км 4/4 1380 м
[Cu med, cong]
+21.0 +14.1 65 +24 +25 комфорт 1013.3 1012.6 +17.6
09 17.09 ЮЗ 6 20 км 4/4 1380 м
[Cu med, cong]
+25.6 +16.4 57 +29 +32 душно 1014.2 1013.5
12 17.09 ЮЗ 12 20 км ясно +31.0 +12.8 33 +32 +32 жарко 1013.3 1012.6
15 17.09 ЮЗ 10 20 км 4/0
[Ci fib]
+30.8 +13.1 34 +32 +32 жарко 1011.7 1011.0
18 17.09 Ю 2 15 км ясно +27.0 +16.0 51 +30 +30 душно 1011.9 1011.2 +31.4
21 17.09 Ю 8 12 км ясно +26.0 +17.7 60 +30 +30 душно 1012.8 1012.1
06 18.09 штиль 0 15 км 8/8 1200 м
[Sc]
+22.4 +20.0 86 +29 +29 очень
душно
1013.9 1013.2 +21.2
09 18.09 ЮЗ 4 15 км 9/9 1200 м
[Sc]
+26.8 +20.3 68 +33 +34 очень
душно
1014.6 1013.9
12 18.09 ЮЗ 6 20 км 5/5 1380 м
[Cu med, cong]
+27.0 +18.1 58 +32 +34 очень
душно
1014.4 1013.7
15 18.09 З 6 20 км 5/5 1380 м
[Cu med, cong]
+26.2 +17.3 58 +30 +31 душно 1012.9 1012.2
18 18.09 СЗ 4 15 км 3/3 1380 м
[Cu med, cong]
+23.0 +14.2 58 +27 +27 душно 1013.3 1012.6 +27.6
21 18.09 штиль 0 10 км ясно +20.6 +14.0 66 +23 +23 комфорт 1013.4 1012.7
06 19.09 СВ 4 15 км 3/0
[Ac trans]
+16.2 +12.2 77 +15 +16 1011.1 1010.4 +14.4
09 19.09 ЮВ 4 20 км 3/0
[Ac trans]
+25.0 +12.2 45 +27 +32 жарко 1010.6 1009.9
12 19.09 ЮЗ 12 20 км 8/8 1300 м
[Sc]
+26.4 +13.5 45 +28 +28 жарко 1010.7 1010.1

 

Местоположение метеостанции Vlore (Албания): широта 40.47 долгота 19.48 высота над уровнем моря 1 м.

В архиве по умолчанию представлена погода в Vlore за последнюю неделю. Архивные данные за месяц целиком и за предыдущие месяцы, начиная с января 2011 года, Вы можете получить, выбрав интересующий диапазон дат из раскрывающегося списка и нажав кнопку "Ввод!".

Внимание! Время в таблицах - всемирное. Для получения местного времени необходимо прибавить поправку, которая в Vlore равна 1 ч.

Смотрите также архив погоды в соседних городах и на ближайших метеорологических станциях:

Погода в Sazan Island (Албания) (17 км)
Погода в Qyteti Stalin (Албания) (51 км)
Погода в Gjirokastra (Албания) (72 км)
Погода в Sarande (Албания) (79 км)
Погода в Durres (Албания) (92 км)
Погода в Otranto (Италия) (94 км)
Погода в Elbasan (Албания) (96 км)
Погода в Tirana (Албания) (99 км)
Погода в Tirana-La Praka (Албания) (102 км)
Погода в Kerkyra (Греция) (102 км)

Пояснения к столбцам:

Ветер - указаны скорость ветра в м/с - средняя за 10 мин, порывы в срок и между сроками (в фигурных скобках) и направление, откуда дует ветер: С - северный, СВ - северо-восточный, В - восточный, ЮВ - юго-восточный, Ю - южный, ЮЗ - юго-западный, З - западный, СЗ - северо-западный.
Видимость - горизонтальная дальность видимости в метрах или километрах. При видимости от 1 до 10 км при отсутствии осадков обычно наблюдается дымка, при ухудшении видимости до 1 км и менее - туман. В сухую погоду видимость может ухудшаться дымом, пылью или мглою.
Явления - указаны атмосферные явления, наблюдавшиеся в срок или в последний час перед сроком; фигурными скобками обозначены явления, наблюдавшиеся между сроками (за 1-3 часа до срока); квадратными скобками обозначены град или гололедные отложения с указанием их диаметра в мм.
Облачность - указаны через наклонную черту общая и нижняя облачность в баллах и высота нижней границы облаков в метрах; квадратными скобками обозначены формы облаков: Ci - перистые, Cs - перисто-слоистые, Cc - перисто-кучевые, Ac - высококучевые, As - высокослоистые, Sc - слоисто-кучевые, Ns - слоисто-дождевые, Cu - кучевые, Cb - кучево-дождевые. Подробнее классификацию облаков см. в Атласе облаков (PDF).
T - Температура воздуха - температура, измеренная на высоте 2 м над землей.
Td - Температура точки росы - температура, при понижении до которой содержащийся в воздухе водяной пар достигнет насыщения.
f - Относительная влажность воздуха - влажноcть воздуха, измеренная на высоте 2 м над землей.
Te - Эффективная температура - температура, которую ощущает одетый по сезону человек в тени. Характеристика душности погоды. При расчете учитывается влияние влажности воздуха и скорости ветра на теплоощущения человека.
Tes - Эффективная температура на солнце - температура, которую ощущает человек, с поправкой на солнечный нагрев. Характеристика знойности погоды. Зависит от высоты солнца над горизонтом, облачности и скорости ветра. Ночью, в пасмурную погоду, а также при ветре 12 м/с и более поправка равна нулю.
P - Атмосферное давление - приведенное к уровню моря атмосферное давление.
Po - Атмосферное давление - измеренное на уровне метеостанции атмосферное давление.
Tmin - Минимальная температура - минимум температуры воздуха на высоте 2 м над землей.
Tmax - Максимальная температура - максимум температуры воздуха на высоте 2 м над землей.
R - Количество осадков - Количество выпавших осадков за период времени, мм. При наведении курсора мыши на число - период времени, за который выпало указанное количество осадков.
R24 - Количество осадков - Количество выпавших осадков за 24 часа, мм.
S - Снежный покров - Высота снежного покрова, см. При наведении курсора мыши на число - состояние снежного покрова и степень покрытия местности в баллах.